Retour au catalogue

CZ-6A DEB

ActifPO
NORAD 60961·DEBRIS·🇨🇳 China

Lancé Aug 6, 2024 depuis Taiyuan Satellite Launch Center

Loading…

Prochains Passages (prochaines 24 heures)

TLE

FraisSource: Space-Track

Époque: Sep 14, 2026, 11:22 UTC

1 60961U 24140LL  26257.47419291  .00001695  00000-0  67174-3 0  9991
2 60961  89.0014 264.1823 0027987 255.1838 104.6256 14.28258108108627

Suivez CZ-6A DEB en temps réel avec AllMySat

Download on the App Store